Terminal Aerodrome Forecast
Issued by NWS Mt. Holly, NJ

Home | Current Version | Previous Version | Text Only | Print | Product List | Glossary On
Versions: 1 2 3 4 5 6 7 8 9 10 11 12 13 14 15 16 17 18 19 20 21 22 23 24 25 26 27 28 29 30 31 32 33 34 35 36 37 38 39 40 41 42 43 44 45 46 47 48 49 50
000
FTAK31 PANC 272333
TAFABE
TAF
PABE 272333Z 2800/2824 24014KT 2SM -SHSN SCT020 OVC030
      TEMPO 2800/2801 1SM -SHSN BKN020
     FM280100 29014G24KT P6SM VCSH SCT025 BKN040
     FM280400 29012G18KT P6SM BKN050
     FM281000 32013KT P6SM SKC
     FM282000 35018G28KT P6SM SCT040=

USA.gov is the U.S. government's official web portal to all federal, state and local government web resources and services.